STARLINK-1539 (46072 NORAD) Tracking and Keplerian Element Data

This shows tracking and keplerian element data for the satellite.

Feedback or suggestion? Click here.




ElementValue
Catalog46072
NameSTARLINK-1539
Epoch Orbit1858
Epoch Day331.853606
Epoch Year2020
RAAN115.5954
Inclination52.9825
Eccentricity0.0001513
Argument of Perigee80.6482
Mean Anonmoly279.4676
Mean Motion15.05571233
Decay Rate5.7E-06
L11 46072U 20055AX 20331.85360600 .00000570 00000-0 58279-4 0 9995
L22 46072 52.9825 115.5954 0001513 80.6482 279.4676 15.05571233 18585

Live tracking and technical data element details for STARLINK-1539 (NORAD 46072). STARLINK-1539 can be tracked NOW for your location showing map with azimuth and elevation plus other details from your city location.

Track the satellite on the map from your city or location and see movement details for azimuth, elevation, latitude, longitude, range, height, and movement on the map or in text.







IsCatalogInMostPopularTable: catalog: 46072, numindb: 39
Update: records affected: 1



GetName: 46072 STARLINK-1539

Hit Count: updated at: Fri, 27 Nov 2020 13:31:24 GMT